Location: Veyrier
(46.1830°N, 6.2000°E)
Time: 22:24:09
(UTC+02:00)

ISS - Visible Passes

Search period start: 23 September 2020 00:00
Search period end: 03 October 2020 00:00
Orbit: 419 x 420 km, 51.6° (Epoch: 24 September)

Date Brightness Start Highest point End Pass type
(mag) Time Alt. Az. Time Alt. Az. Time Alt. Az.
23 Sep -2.6 20:55:19 10° W 20:58:30 38° NNW 21:00:23 20° NE visible
23 Sep -0.5 22:32:45 10° WNW 22:33:22 14° NW 22:33:22 14° NW visible
24 Sep -2.9 20:07:45 10° W 20:11:02 48° NNW 20:14:19 10° ENE visible
24 Sep -2.0 21:45:16 10° WNW 21:47:47 29° NNW 21:47:47 29° NNW visible
25 Sep -2.3 20:57:44 10° WNW 21:00:47 31° N 21:02:10 22° NE visible
25 Sep -0.3 22:34:51 10° WNW 22:35:08 12° NW 22:35:08 12° NW visible
26 Sep -2.4 20:10:09 10° WNW 20:13:15 33° N 20:16:22 10° ENE visible
26 Sep -1.8 21:47:26 10° WNW 21:49:29 28° NNW 21:49:29 28° NNW visible
27 Sep -2.5 20:59:58 10° WNW 21:03:04 32° N 21:03:50 29° NE visible
28 Sep -2.4 20:12:27 10° WNW 20:15:30 31° N 20:18:10 12° ENE visible
28 Sep -1.6 21:49:24 10° WNW 21:51:08 27° NW 21:51:08 27° NW visible
29 Sep -3.2 21:01:59 10° WNW 21:05:14 44° NNE 21:05:29 43° NNE visible
30 Sep -2.8 20:14:32 10° WNW 20:17:42 36° NNE 20:19:50 17° ENE visible
30 Sep -1.4 21:51:20 10° WNW 21:52:48 24° WNW 21:52:48 24° WNW visible
01 Oct -3.8 21:03:52 10° WNW 21:07:11 81° N 21:07:11 81° N visible
02 Oct -3.5 20:16:24 10° WNW 20:19:45 58° NNE 20:21:37 23° E visible
02 Oct -1.0 21:53:28 10° W 21:54:35 17° W 21:54:35 17° W visible
